Caro, MI

11:00 PM EST on January 23, 2017 (GMT -0500)
Caro

Weather History for KCFS - November, 2012

Change the Weather History Date:

Sunday, November 25, 2012

  Actual Average (KMBS) Record (KMBS)
Temperature  
Mean Temperature 30 °F -  
Max Temperature 33 °F 40 °F 57 °F (2011)
Min Temperature 27 °F 28 °F 17 °F (2005)
Degree Days  
Heating Degree Days 35    
Moisture  
Dew Point 25 °F    
Average Humidity 80    
Maximum Humidity 93    
Minimum Humidity 62    
Precipitation  
Precipitation 0.00 in - - ()
Sea Level Pressure  
Sea Level Pressure 29.87 in    
Wind  
Wind Speed 8 mph (SW)    
Max Wind Speed 12 mph    
Max Gust Speed 16 mph    
Visibility 8 miles    
Events Snow    
Averages and records for this station are not official NWS values.
T = Trace of Precipitation, MM = Missing Value Source: NWS Daily Summary

Daily Weather History Graph

Daily Weather History Graph

Search for Another Location

Airport or City:

Trip Planner

Search our weather history database for the weather conditions in past years. The results will help you decide how hot, cold, wet, or windy it might be!

Date:

Astronomy

Nov. 25, 2012 Rise Set
Actual Time 7:40 AM EST 5:01 PM EST
Civil Twilight 7:08 AM EST 5:32 PM EST
Nautical Twilight 6:33 AM EST 6:08 PM EST
Astronomical Twilight 5:59 AM EST 6:42 PM EST
Moon 3:20 PM EST (11/25) 4:50 AM EST (11/25)
Length of Visible Light 10h 24m
Length of Day
9h 20m
Waxing Gibbous, 93% of the Moon is Illuminated
Nov 25
Waxing Gibbous
Nov 28
Full
Dec 6
Last Quarter
Dec 13
New
Dec 20
First Quarter

Hourly Weather History & Observations

Time (EST) Temp. Windchill Dew Point Humidity Pressure Visibility Wind Dir Wind Speed Gust Speed Precip Events Conditions
12:14 AM 30.0 °F 21.1 °F 18.3 °F 62% 29.99 in 10.0 mi SW 10.4 mph - N/A   Overcast
12:35 AM 29.8 °F 22.2 °F 18.3 °F 62% 29.98 in 10.0 mi WSW 8.1 mph - N/A   Overcast
12:54 AM 29.3 °F 23.2 °F 18.3 °F 64% 29.97 in 10.0 mi SW 5.8 mph - N/A   Overcast
1:14 AM 29.3 °F 23.2 °F 18.3 °F 64% 29.97 in 10.0 mi WSW 5.8 mph - N/A   Overcast
1:35 AM 29.3 °F 22.3 °F 18.5 °F 64% 29.96 in 10.0 mi SW 6.9 mph - N/A   Overcast
1:54 AM 29.3 °F 23.2 °F 18.5 °F 64% 29.95 in 10.0 mi SSW 5.8 mph - N/A   Overcast
2:15 AM 29.1 °F 24.1 °F 18.5 °F 65% 29.95 in 10.0 mi SSW 4.6 mph - N/A   Overcast
2:35 AM 29.3 °F 25.6 °F 18.5 °F 64% 29.95 in 10.0 mi SW 3.5 mph - N/A   Overcast
2:54 AM 29.3 °F 23.2 °F 18.7 °F 65% 29.95 in 10.0 mi SW 5.8 mph - N/A   Overcast
3:15 AM 29.3 °F 23.2 °F 19.0 °F 66% 29.95 in 10.0 mi SW 5.8 mph - N/A   Overcast
3:35 AM 29.5 °F 24.5 °F 19.2 °F 66% 29.93 in 10.0 mi South 4.6 mph - N/A   Overcast
3:54 AM 29.3 °F 24.3 °F 19.9 °F 68% 29.92 in 10.0 mi SSW 4.6 mph - N/A   Overcast
4:15 AM 28.4 °F 22.2 °F 22.6 °F 79% 29.91 in 4.0 mi South 5.8 mph - N/A Snow Light Snow
4:34 AM 28.2 °F 21.0 °F 24.1 °F 84% 29.90 in 1.5 mi SSW 6.9 mph - N/A Snow Light Snow
4:55 AM 27.9 °F 22.6 °F 25.3 °F 90% 29.89 in 1.8 mi South 4.6 mph - N/A Snow Light Snow
5:14 AM 27.9 °F 21.5 °F 25.7 °F 92% 29.89 in 1.5 mi SSW 5.8 mph - N/A Snow Light Snow
5:34 AM 27.9 °F 18.4 °F 25.7 °F 92% 29.89 in 1.2 mi SSW 10.4 mph - N/A Snow Light Snow
5:55 AM 27.9 °F 19.1 °F 25.7 °F 92% 29.87 in 1.5 mi SSW 9.2 mph - N/A Snow Light Snow
6:14 AM 27.9 °F 19.8 °F 25.7 °F 92% 29.87 in 1.5 mi SSW 8.1 mph - N/A Snow Light Snow
6:35 AM 27.5 °F 20.2 °F 25.7 °F 93% 29.86 in 1.2 mi South 6.9 mph - N/A Snow Light Snow
6:55 AM 27.5 °F 20.2 °F 25.7 °F 93% 29.85 in 1.8 mi South 6.9 mph - N/A Snow Light Snow
7:14 AM 27.5 °F 20.2 °F 25.7 °F 93% 29.86 in 2.0 mi South 6.9 mph - N/A Snow Light Snow
7:35 AM 27.3 °F 19.9 °F 25.5 °F 93% 29.85 in 1.8 mi South 6.9 mph - N/A Snow Light Snow
7:55 AM 27.3 °F 19.9 °F 25.5 °F 93% 29.84 in 1.2 mi South 6.9 mph - N/A Snow Light Snow
8:14 AM 27.3 °F 20.9 °F 25.5 °F 93% 29.84 in 3.0 mi South 5.8 mph - N/A Snow Light Snow
8:35 AM 27.5 °F 19.3 °F 25.3 °F 92% 29.84 in 2.5 mi SSW 8.1 mph - N/A Snow Light Snow
8:54 AM 27.7 °F 18.8 °F 25.5 °F 92% 29.84 in 2.5 mi SSW 9.2 mph - N/A Snow Light Snow
9:14 AM 27.9 °F 20.6 °F 25.5 °F 91% 29.84 in 4.0 mi South 6.9 mph - N/A Snow Light Snow
9:35 AM 28.4 °F 20.4 °F 25.2 °F 88% 29.84 in 5.0 mi South 8.1 mph - N/A Snow Light Snow
9:54 AM 28.8 °F 20.9 °F 24.8 °F 85% 29.84 in 7.0 mi South 8.1 mph - N/A Snow Light Snow
10:14 AM 28.9 °F 20.4 °F 24.8 °F 84% 29.84 in 5.0 mi SSW 9.2 mph - N/A Snow Light Snow
10:35 AM 28.9 °F 23.9 °F 24.8 °F 84% 29.83 in 7.0 mi South 4.6 mph - N/A Snow Light Snow
10:54 AM 29.1 °F 21.3 °F 25.2 °F 85% 29.83 in 7.0 mi SSW 8.1 mph - N/A Snow Light Snow
11:14 AM 29.3 °F 22.3 °F 25.7 °F 86% 29.82 in 7.0 mi South 6.9 mph - N/A Snow Light Snow
11:34 AM 29.7 °F 20.7 °F 25.7 °F 85% 29.82 in 7.0 mi SW 10.4 mph - N/A   Overcast
11:54 AM 29.8 °F 20.9 °F 26.2 °F 86% 29.81 in 10.0 mi SW 10.4 mph - N/A   Overcast
12:14 PM 30.0 °F 21.7 °F 26.2 °F 86% 29.80 in 10.0 mi SW 9.2 mph - N/A   Overcast
12:34 PM 30.2 °F 21.9 °F 25.9 °F 84% 29.80 in 10.0 mi SW 9.2 mph - N/A   Overcast
12:55 PM 30.7 °F 21.4 °F 25.9 °F 82% 29.80 in 10.0 mi SW 11.5 mph 16.1 mph N/A   Overcast
1:14 PM 31.1 °F 22.4 °F 25.7 °F 80% 29.80 in 10.0 mi SW 10.4 mph - N/A   Overcast
1:34 PM 31.5 °F 24.2 °F 25.9 °F 80% 29.80 in 10.0 mi SW 8.1 mph - N/A   Overcast
1:55 PM 32.0 °F 24.8 °F 26.1 °F 79% 29.79 in 10.0 mi WSW 8.1 mph - N/A   Overcast
2:14 PM 32.0 °F 24.2 °F 26.4 °F 80% 29.79 in 10.0 mi SW 9.2 mph - N/A   Overcast
2:35 PM 32.0 °F 23.6 °F 26.6 °F 80% 29.79 in 10.0 mi WSW 10.4 mph - N/A   Overcast
2:55 PM 32.0 °F 23.0 °F 26.6 °F 80% 29.80 in 10.0 mi WSW 11.5 mph - N/A   Overcast
3:14 PM 32.0 °F 24.2 °F 26.8 °F 81% 29.80 in 10.0 mi WSW 9.2 mph - N/A   Overcast
3:35 PM 32.0 °F 23.6 °F 27.1 °F 82% 29.80 in 10.0 mi WSW 10.4 mph - N/A   Overcast
3:54 PM 32.4 °F 25.3 °F 27.0 °F 80% 29.81 in 10.0 mi WSW 8.1 mph - N/A   Overcast
4:15 PM 32.4 °F 26.0 °F 27.1 °F 81% 29.82 in 10.0 mi WSW 6.9 mph - N/A   Overcast
4:35 PM 32.4 °F 25.3 °F 27.3 °F 82% 29.83 in 10.0 mi WSW 8.1 mph - N/A   Overcast
4:54 PM 32.5 °F 25.5 °F 27.3 °F 81% 29.84 in 10.0 mi WSW 8.1 mph - N/A   Overcast
5:15 PM 32.5 °F 26.2 °F 27.5 °F 82% 29.84 in 10.0 mi WSW 6.9 mph - N/A   Overcast
5:35 PM 32.5 °F 26.2 °F 27.9 °F 83% 29.84 in 10.0 mi WSW 6.9 mph - N/A   Overcast
5:54 PM 32.5 °F 26.2 °F 28.0 °F 83% 29.84 in 10.0 mi WSW 6.9 mph - N/A   Overcast
6:15 PM 32.7 °F 26.4 °F 28.2 °F 83% 29.85 in 10.0 mi WSW 6.9 mph - N/A   Overcast
6:34 PM 32.9 °F 25.9 °F 28.2 °F 83% 29.86 in 10.0 mi WSW 8.1 mph - N/A   Overcast
6:54 PM 33.1 °F 26.1 °F 28.0 °F 82% 29.87 in 10.0 mi WSW 8.1 mph - N/A   Overcast
7:15 PM 33.1 °F 25.5 °F 28.0 °F 82% 29.88 in 10.0 mi WSW 9.2 mph - N/A   Overcast
7:34 PM 33.1 °F 25.5 °F 28.0 °F 82% 29.88 in 10.0 mi WSW 9.2 mph - N/A   Overcast
7:54 PM 33.3 °F 27.1 °F 27.7 °F 80% 29.88 in 10.0 mi WSW 6.9 mph - N/A   Overcast
8:15 PM 33.3 °F 25.7 °F 27.0 °F 78% 29.89 in 10.0 mi West 9.2 mph - N/A   Overcast
8:34 PM 32.5 °F 24.2 °F 25.7 °F 76% 29.90 in 10.0 mi West 10.4 mph - N/A   Mostly Cloudy
8:54 PM 32.4 °F 25.3 °F 25.3 °F 75% 29.90 in 10.0 mi West 8.1 mph - N/A   Overcast
9:15 PM 31.5 °F 24.2 °F 25.2 °F 78% 29.90 in 10.0 mi West 8.1 mph - N/A   Overcast
9:34 PM 30.2 °F 23.4 °F 24.4 °F 79% 29.91 in 10.0 mi West 6.9 mph - N/A   Mostly Cloudy
9:55 PM 30.4 °F 22.9 °F 23.9 °F 77% 29.91 in 10.0 mi West 8.1 mph - N/A   Scattered Clouds
10:14 PM 29.5 °F 21.8 °F 23.9 °F 80% 29.92 in 10.0 mi WSW 8.1 mph - N/A   Scattered Clouds
10:34 PM 30.9 °F 23.5 °F 24.4 °F 77% 29.93 in 10.0 mi WSW 8.1 mph - N/A   Overcast
10:55 PM 31.6 °F 24.4 °F 25.2 °F 77% 29.94 in 10.0 mi West 8.1 mph - N/A   Overcast
11:14 PM 31.8 °F 24.6 °F 25.2 °F 76% 29.94 in 10.0 mi WSW 8.1 mph - N/A   Overcast
11:35 PM 31.8 °F 23.9 °F 25.2 °F 76% 29.95 in 10.0 mi WSW 9.2 mph - N/A   Overcast
11:55 PM 31.6 °F 24.4 °F 25.0 °F 76% 29.94 in 10.0 mi WSW 8.1 mph - N/A   Overcast